Das Wetter in  D-61279 Heinzenberg / Taunus





Wetter Minimum- & Maximum-Werte im September 2017

Standort: Heinzenberg / Taunus - Höhe 297 m         8 24' 1" Ost 50 21' 51" Nord
(   3-stündige Aktualisierung    letzte Aktualisierung um 19:04 am 30.09.2017  )


Messgrösse

Minimum

Maximum

Durchschnitt

Temperatur West /
Luftfeuchte West
Anklicken für Monats-Diagramm

3,1 C

07:20
16.09.2017

45 %

16:11
01.09.2017

24,7 C

13:19
05.09.2017

92 %

09:40
26.09.2017

Temp

13,1 C

Feuchte

79 %

Temperatur Ost /
Luftfeuchte Ost
Anklicken für Monats-Diagramm

3,3 C

07:35
16.09.2017

--

--
--

24,9 C

13:19
05.09.2017

--

--
--

13,4 C

--

Luftdruck Anklicken für Monats-Diagramm

995,6 hPa

06:03
09.09.2017

1024,4 hPa

08:51
27.09.2017

1014,6 hPa

Taupunkt

1,6 C

07:20
16.09.2017

16,8 C

14:03
29.09.2017

9,4 C

Windchill
( gefühlte Temperatur )

-2,7 C

19:18
14.09.2017

24,3 C

16:41
01.09.2017

11,3 C

Windgeschwindigkeit /
Windrichtung
Anklicken für Monats-Diagramm

---

59,4 km/h / W-SW

14:27
13.09.2017

8,1 km/h
W-SW

Helligkeit /
Sonnenschein
Anklicken für Monats-Diagramm
Anklicken für Monats-Diagramm

Sonnenschein:

111:39 Stunden

Max: 8:39 Std am
21.09.2017

112 klux

14:25
11.09.2017

28 klux

Solarstrahlung Anklicken für Monats-Diagramm

---

766 W/m

14:25
11.09.2017

205 W/m

Regenmenge
    September 2017
Anklicken für Monats-Diagramm

Insgesamt 50,2 l/m

in 50:37 Stunden
an 16 Tagen

15,8 l/m

18:33
14.09.2017

Gesamtmenge

50,2 l/m

Regen-Tage
    September 2017
Anklicken für Monats-Diagramm

>   0 mm/Tag

>   2 mm/Tag

>   5 mm/Tag

> 10 mm/Tag

> 20 mm/Tag

16 Tage     
6 Tage     
2 Tage     
2 Tage     
0 Tage     

Eisige Tage September 2017 / 2016

Tmin ≤ -10C     

0 Tage

/

0 Tage

Eistage September 2017 / 2016

Tmax <     0C     

0 Tage

/

0 Tage

Frosttage September 2017 / 2016

Tmin ≤     0C     

0 Tage

/

0 Tage

Kalte Tage September 2017 / 2016

Tmax <   10C     

0 Tage

/

0 Tage

Warme Tage September 2017 / 2016

Tmax ≥   20C     

13 Tage

/

27 Tage

Sommertage September 2017 / 2016

Tmax ≥   25C     

0 Tage

/

16 Tage

Heisse Tage September 2017 / 2016

Tmax ≥   30C     

0 Tage

/

8 Tage


Monatsdiagramm September 2017

Die Kurven zeigen den Durchschnittswert des jeweiligen Tages an


Wetter-Monatsübersicht September 2017
Datum
  Temperatur
   Luftdruck
   Wind
  Regen
   Luftfeuchte
   Helligkeit

Sonnen-
schein


Temp.

Min.
Temp.

Max.
Temp.


Luftdruck

Min.
Luftdruck

Max.
Luftdruck

-Geschw.
Haupt-Richtg.

Max.
Wind

Menge /
Dauer


Feuchte

Min.
Feuchte

Max.
Feuchte


Helligkeit

Max.
Helligkeit

1.
September
13,9 C7,9 C
07:16
24,4 C
16:46
1019,4 hPa1016,2 hPa
16:46
1021,3 hPa
07:16
1,4 km/h
NW
12,9 km/h
19:16  
---
76 %45 %
16:11
91 %
09:51
35,7 klux93,7 klux
13:16
5:25 Std 
2.
September
13,9 C11,1 C
23:57
19,2 C
14:52
1018,1 hPa1016,8 hPa
14:52
1018,8 hPa
23:57
1,9 km/h
NW
14,3 km/h
15:32  
---
15 Minuten
78 %61 %
14:52
88 %
07:17
23,2 klux91,6 klux
12:32
1:50 Std 
3.
September
13,0 C7,4 C
06:08
21,2 C
16:23
1016,6 hPa1013,5 hPa
16:28
1019,2 hPa
03:48
1,9 km/h
W-SW
14,4 km/h
17:18  
0,9 l/m
50 Minuten
76 %52 %
17:23
90 %
08:58
36,6 klux99,6 klux
15:03
6:20 Std 
4.
September
14,0 C6,0 C
06:54
23,6 C
14:29
1016,0 hPa1014,8 hPa
00:04
1018,3 hPa
22:49
3,8 km/h
W-SW
21,0 km/h
18:14  
---
72 %49 %
14:34
88 %
08:49
42 klux94 klux
14:09
8:09 Std 
5.
September
19,1 C14,4 C
06:54
24,7 C
13:19
1017,0 hPa1015,3 hPa
16:29
1018,4 hPa
06:54
5,9 km/h
W-SW
23,8 km/h
14:24  
---
71 %59 %
13:24
81 %
06:54
37,4 klux111,0 klux
13:49
5:30 Std 
6.
September
17,2 C13,1 C
23:11
20,3 C
11:15
1015,0 hPa1012,9 hPa
06:30
1017,5 hPa
23:11
19,0 km/h
W
40,8 km/h
11:20  
---
70 %54 %
16:15
80 %
07:05
29 klux105 klux
13:50
3:25 Std 
7.
September
14,7 C12,1 C
01:46
19,8 C
16:11
1015,5 hPa1013,2 hPa
23:22
1017,6 hPa
01:46
14,7 km/h
W-SW
29,0 km/h
14:21  
---
70 %55 %
16:21
77 %
07:31
30 klux95 klux
14:26
2:35 Std 
8.
September
15,0 C12,2 C
07:17
17,5 C
13:42
1007,0 hPa1000,6 hPa
22:48
1013,2 hPa
00:02
19,6 km/h
W-SW
40,4 km/h
17:17  
---
10 Minuten
71 %66 %
13:37
78 %
07:27
16,9 klux64,4 klux
13:27
35 Min 
9.
September
14,9 C10,6 C
23:54
17,0 C
13:33
998,5 hPa995,6 hPa
06:03
1002,3 hPa
23:54
22,3 km/h
W-SW
44,6 km/h
12:38  
4,1 l/m
4:40 Stunden
74 %65 %
13:18
85 %
22:29
21,9 klux84,6 klux
11:43
1:31 Std 
10.
September
12,6 C7,6 C
04:24
18,4 C
13:54
1004,2 hPa1002,3 hPa
00:04
1006,3 hPa
10:19
6,8 km/h
W-SW
28,5 km/h
18:04  
---
78 %62 %
18:04
90 %
05:34
31,5 klux104,0 klux
13:39
5:00 Std 
11.
September
13,7 C11,6 C
06:55
19,3 C
16:30
1000,1 hPa998,0 hPa
09:35
1003,1 hPa
23:06
21,6 km/h
W-SW
46,4 km/h
17:40  
0,9 l/m
2:45 Stunden
73 %52 %
16:40
87 %
12:40
31 klux112 klux
14:25
4:20 Std 
12.
September
13,2 C10,8 C
23:47
18,5 C
14:51
1006,2 hPa1002,0 hPa
00:31
1011,6 hPa
23:47
20,4 km/h
W-SW
40,2 km/h
15:56  
3,0 l/m
4:50 Stunden
76 %60 %
14:56
86 %
10:21
33 klux105 klux
13:46
3:45 Std 
13.
September
13,1 C10,6 C
00:22
17,2 C
17:07
1003,8 hPa1000,9 hPa
10:32
1011,6 hPa
00:22
30,0 km/h
W-SW
59,4 km/h
14:27  
14,6 l/m
7:41 Stunden
80 %61 %
17:37
90 %
12:07
21 klux60 klux
13:52
55 Min 
14.
September
10,8 C8,8 C
20:08
14,5 C
16:58
1004,3 hPa1000,3 hPa
07:33
1011,8 hPa
23:29
26,6 km/h
W-SW
48,0 km/h
17:18  
15,8 l/m
15:36 Stunden
86 %67 %
17:08
91 %
10:03
21,5 klux103,0 klux
12:18
2:00 Std 
15.
September
10,9 C7,2 C
23:50
15,8 C
15:59
1011,9 hPa1010,0 hPa
16:24
1012,9 hPa
04:49
10,3 km/h
W-SW
35,1 km/h
13:34  
2,6 l/m
2:20 Stunden
84 %69 %
16:19
90 %
00:04
24 klux93 klux
13:09
3:20 Std 
16.
September
8,8 C3,1 C
07:20
16,4 C
17:55
1011,7 hPa1009,9 hPa
17:55
1012,9 hPa
23:56
2,5 km/h
SO
15,8 km/h
15:05  
0,5 l/m
1:00 Stunden
83 %67 %
18:35
91 %
09:15
28,7 klux87,5 klux
11:50
5:10 Std 
17.
September
9,7 C4,7 C
04:16
17,3 C
17:16
1013,0 hPa1010,8 hPa
17:16
1014,3 hPa
07:21
2,7 km/h
W-SW
24,0 km/h
17:41  
0,9 l/m
1:10 Stunden
81 %61 %
17:21
91 %
08:11
31,4 klux97,9 klux
11:56
5:10 Std 
18.
September
8,6 C3,5 C
06:07
15,4 C
17:02
1014,9 hPa1014,1 hPa
17:02
1016,2 hPa
23:53
3,4 km/h
W-SW
24,5 km/h
17:22  
1,1 l/m
2:20 Stunden
84 %71 %
17:07
91 %
10:37
22,5 klux79,6 klux
14:57
2:00 Std 
19.
September
10,6 C6,5 C
01:53
16,8 C
17:03
1016,9 hPa1013,7 hPa
22:24
1020,0 hPa
23:59
3,7 km/h
NW
20,5 km/h
16:23  
1,2 l/m
1:20 Stunden
84 %69 %
16:48
91 %
07:18
31,5 klux105,0 klux
14:28
4:25 Std 
20.
September
11,0 C7,0 C
07:39
18,4 C
17:29
1020,5 hPa1019,0 hPa
17:29
1022,0 hPa
10:49
1,2 km/h
W
12,8 km/h
15:39  
2,7 l/m
1:15 Stunden
85 %67 %
17:34
91 %
08:29
22 klux84 klux
15:19
2:10 Std 
21.
September
11,8 C5,5 C
07:55
20,3 C
13:50
1020,6 hPa1018,7 hPa
16:55
1022,6 hPa
07:55
2,5 km/h
SO
14,5 km/h
17:45  
---
80 %55 %
17:10
91 %
09:00
39,9 klux90,8 klux
13:25
8:39 Std 
22.
September
11,5 C5,2 C
07:46
20,2 C
14:21
1020,2 hPa1018,7 hPa
14:21
1023,1 hPa
23:57
1,8 km/h
W-NW
12,6 km/h
15:36  
---
5 Minuten
80 %62 %
15:51
90 %
09:46
32,6 klux79,4 klux
15:30
6:20 Std 
23.
September
12,4 C8,0 C
07:52
18,6 C
14:12
1022,3 hPa1020,0 hPa
17:57
1024,1 hPa
09:47
1,7 km/h
NW
10,6 km/h
11:47  
---
83 %70 %
14:32
91 %
10:02
22,2 klux83,3 klux
14:02
1:40 Std 
24.
September
12,6 C9,6 C
05:28
19,0 C
14:58
1021,5 hPa1020,9 hPa
14:58
1022,1 hPa
07:23
1,4 km/h
SO
10,5 km/h
01:28  
---
85 %70 %
15:48
91 %
06:53
17,6 klux89,1 klux
14:48
45 Min 
25.
September
12,8 C8,3 C
03:29
20,3 C
16:49
1020,4 hPa1017,7 hPa
16:59
1022,2 hPa
02:49
1,5 km/h
SO
15,1 km/h
14:29  
---
83 %64 %
16:54
91 %
05:59
23,0 klux67,5 klux
11:19
1:45 Std 
26.
September
13,0 C8,1 C
03:15
20,3 C
13:35
1021,2 hPa1019,8 hPa
16:00
1022,9 hPa
23:56
1,5 km/h
SO
16,5 km/h
12:50  
---
81 %63 %
16:00
92 %
09:40
27,5 klux80,3 klux
13:15
3:20 Std 
27.
September
13,8 C7,8 C
07:16
23,0 C
15:31
1022,5 hPa1020,5 hPa
15:31
1024,4 hPa
08:51
1,8 km/h
SO
15,9 km/h
16:36  
---
79 %56 %
16:36
91 %
09:51
35,4 klux79,5 klux
14:26
7:55 Std 
28.
September
14,1 C8,9 C
04:32
22,7 C
16:02
1022,9 hPa1021,6 hPa
16:02
1024,2 hPa
08:47
1,7 km/h
W-SW
24,1 km/h
16:12  
---
82 %62 %
16:12
90 %
09:17
24,1 klux94,2 klux
12:47
2:30 Std 
29.
September
17,1 C12,9 C
03:53
24,2 C
16:18
1020,8 hPa1018,2 hPa
23:29
1023,6 hPa
00:38
3,7 km/h
W-SW
18,1 km/h
16:23  
---
80 %62 %
15:48
91 %
08:53
28,6 klux86,1 klux
13:53
3:55 Std 
30.
September
14,9 C10,3 C
23:50
21,1 C
12:54
1016,1 hPa1012,5 hPa
14:44
1018,9 hPa
23:50
6,9 km/h
W
36,6 km/h
15:39  
1,8 l/m
4:20 Stunden
85 %71 %
15:04
91 %
23:40
17,8 klux76,9 klux
12:04
1:15 Std 



September
2017

Temperatur

  

Luftdruck

  

Wind

  

Regen

  

Luftfeuchte

  

Helligkeit

Sonnen-
schein

Min

Max

Min

Max

Max

Max

Min

Max

Max

Max

13,1 C

3,1 C

07:20 Uhr
16.09.2017

24,7 C

13:19 Uhr
05.09.2017

1014,6 hPa

995,6 hPa

06:03 Uhr
09.09.2017

1024,4 hPa

08:51 Uhr
27.09.2017

8,1 km/h

W-SW

59,4 km/h

14:27 Uhr
13.09.2017

15,8 l/m

15:36 Stunden
14.09.2017

79 %

45 %

16:11 Uhr
01.09.2017

92 %

09:40 Uhr
26.09.2017

28,0 klux

112,0 klux

14:25 Uhr
11.09.2017

8:39 Std

am
21.09.2017

Gesamt

Gesamt

50,2 l/m

16 Tage
50:37 h

111:39 Std


Wetter-Diagramme September 2017     Heinzenberg / Taunus   
TemperaturLuftfeuchte
SolarstrahlungLuftdruck
HelligkeitSonnenschein
RegenmengeRegendauer
Wind-GeschwindigkeitWind-Richtung